Regional Weather Roundup
Issued by NWS Newport/Morehead, NC

Current Version | Previous Version | Text Only | Print | Product List | Glossary On
Versions: 1 2 3 4 5 6 7 8 9 10 11 12 13 14 15 16 17 18 19 20 21 22 23 24 25 26 27 28 29 30 31 32 33 34 35 36 37 38 39 40 41 42 43 44 45 46 47 48 49 50
000
ASUS42 KMHX 210210
RWRMHX
WEATHER ROUNDUP FOR EASTERN NORTH CAROLINA
NATIONAL WEATHER SERVICE NEWPORT/MOREHEAD CITY NC
1000 PM EDT SAT SEP 20 2014

NOTE: "FAIR" INDICATES FEW OR NO CLOUDS BELOW 12,000 FEET
WITH NO SIGNIFICANT WEATHER AND/OR OBSTRUCTIONS TO VISIBILITY

NCZ015>017-031-032-045>047-102-103-210300-
NORTH COAST

CITY           SKY/WX    TMP DP  RH WIND       PRES   REMARKS
EDENTON        CLOUDY    70  68  94 NE5       30.00F
ELIZABETH CITY CLOUDY    71  69  93 N8        30.00F
KITTY HAWK     CLOUDY    74  72  92 E7        29.98F
MANTEO         CLOUDY    73  71  93 E9        29.99F

$$

NCZ045>047-081-094-103-104-210300-
CENTRAL COAST

CITY           SKY/WX    TMP DP  RH WIND       PRES   REMARKS
FRISCO         LGT RAIN  69  69 100 E8G17     29.95F
SWANQUARTER      N/A     72 N/A N/A NE7G14    29.91F

$$

NCZ095-097-098-100-101-210300-
SOUTHERN COAST

CITY           SKY/WX    TMP DP  RH WIND       PRES   REMARKS
BEAUFORT       CLOUDY    71  69  93 N13       29.92F
CEDAR ISLAND     N/A     73 N/A N/A N14       29.97F
JACKSONVILLE   CLOUDY    70  68  94 NE12      29.93F
NEWPORT        NOT AVBL
PINEY ISLAND   LGT RAIN  74  70  87 N12       29.93F
WILMINGTON     CLOUDY    71  69  93 N15       29.92F


$$

NCZ011>013-027>030-043-044-078>080-089-090>093-098-210300-
COASTAL PLAIN

CITY           SKY/WX    TMP DP  RH WIND       PRES   REMARKS
AHOSKIE        CLOUDY    68  65  90 N3        30.02F
CLINTON        CLOUDY    72  67  84 NE8       29.98S
ELIZABETHTOWN  CLOUDY    71  65  83 CALM      29.96F
GOLDSBORO      CLOUDY    72  71  98 NE1       29.97F
GREENVILLE     LGT RAIN  70  68  94 NE6       30.01F
HAVELOCK       CLOUDY    71  69  93 NE12      29.95F
KENANSVILLE    CLOUDY    70  66  87 N5        29.98F
KINSTON        LGT RAIN  70  68  94 NE10      29.99F
NEW BERN       LGT RAIN  73  69  87 NE9       29.96F
RICHLANDS      CLOUDY    70  64  83 N10       29.96S
ROANOKE RAPIDS NOT AVBL
ROCKY MOUNT    CLOUDY    70  65  84 NE5       30.01F
WASHINGTON     CLOUDY    69  67  94 NE5       29.99F
WHITEVILLE     CLOUDY    72  65  80 N3        29.94F

$$

AMZ130-135-150-152-154-156-158-170-250-252-270-ANZ085-086-088-633-658-670-210300-
MARINE OBSERVATIONS

STATION/POSITION TIME  TEMP    WIND        PRES    WAVE   SWELL
                       AIR SEA DIR/SP/G            HT/PER HT/PER
                 (UTC) (F)     (DEG/KT/KT) (MB)    (FT/S) (FT/S)
CHESAPEAKE LIGHT 0100   72      80/ 16/ 18 1017.7
BUOY 44014       0200   76 77  140/ 17/ 19 1015.8    7/10   5/10
DUCK             0200   74 74   50/ 17/ 19 1015.0
2E DUCK          0200                        N/A     6/ 9   2/12
OREGON INLET     0200   74 73   80/  6/  9 1015.2
BUOY 44095       0200      74                N/A     8/10   3/12
20E OREGON INLET NOT AVBL
HATTERAS CG      0200   73 74   90/ 12/ 17 1014.7
DIAMOND BUOY     0200   76      60/ 19/ 21 1013.0    7/10   5/10
CAPE LOOKOUT     0100   71      10/ 10/ 12 1013.4
BEAUFORT LAB     0200   70 75   30/  9/ 14 1012.6
30 SE NEW RIVER  0200   75 83   40/ 25/ 29 1011.6    6/10   3/10
5 SE WRIGHTSVILL 0100   72 80   20/ 21/ 29   N/A
BUOY 41002       0129   78 82  190/ 17/ 21 1011.7    8/10   5/10
BUOY 41004       0200   77 82   10/ 25/ 29 1010.5    8/ 8   5/ 8

$$



USA.gov is the U.S. government's official web portal to all federal, state and local government web resources and services.